Flag for Spain Weather past 2 weeks in Barcelona, Barcelona, Spain

Now
72 °F

Passing clouds.


Feels Like: 71 °F
Forecast: 69 / 83 °F
Wind: 6 mph from Northwest

Location: Barcelona Airport

Current Time: Aug 28, 2015 at 8:05:30 AM

Latest Report: Aug 28, 2015 at 7:30 AM


Visibility: N/A

Pressure: 30.04 "Hg

Humidity: 83%

Dew point: 66 °F

Location of BarcelonaLocation

Historic Weather in Barcelona — Graph

°F

Barcelona temperature yesterday

Maximum temperature yesterday: 82 °F (at 1:00 PM)
Minimum temperature yesterday: 72 °F (at 7:00 AM)
Average temperature yesterday: 78 °F

Past Weeks' High & Low Weather Summary

 TemperatureHumidityPressure
High90 °F (Aug 24, 2:30 PM)94% (Aug 18, 7:00 AM)30.15 "Hg (Aug 18, 7:00 AM)
Low63 °F (Aug 16, 6:30 AM)26% (Aug 24, 2:30 PM)29.68 "Hg (Aug 23, 6:30 PM)
Average76 °F71%29.97 "Hg
* Reported Aug 13 7:00 AM — Aug 28 7:00 AM, Barcelona, Weather by CustomWeather, © 2015

Note: Actual official high and low records may vary slightly from our data, if they occured in-between our weather recording intervals... More about our weather records

Advertising

Barcelona weather history for previous 24 hours

 ConditionsComfort  
Time TempWeatherWind HumidityBarometerVisibility
7:00 AM
Fri, Aug 28
72 °FPassing clouds.1 mph88%30.01 "HgN/A
6:30 AM72 °FPassing clouds.5 mph88%30.01 "HgN/A
6:00 AM72 °FPassing clouds.5 mph88%30.01 "HgN/A
5:30 AM73 °FPassing clouds.3 mph83%30.01 "HgN/A
5:00 AM73 °FPassing clouds.5 mph83%30.01 "HgN/A
4:30 AM73 °FPassing clouds.1 mph78%30.01 "HgN/A
4:00 AM73 °FPassing clouds.3 mph83%30.01 "HgN/A
3:30 AM73 °FPassing clouds.1 mph83%30.01 "HgN/A
3:00 AM73 °FPassing clouds.2 mph83%30.01 "HgN/A
2:30 AM75 °FPassing clouds.2 mph74%30.01 "HgN/A
2:00 AM75 °FPassing clouds.No wind78%30.01 "HgN/A
1:30 AM75 °FPassing clouds.3 mph83%30.01 "HgN/A
1:00 AM75 °FPassing clouds.3 mph89%30.01 "HgN/A
12:30 AM77 °FPassing clouds.5 mph83%30.01 "HgN/A
12:00 AM77 °FPassing clouds.6 mph79%30.01 "HgN/A
11:30 PM
Thu, Aug 27
77 °FPassing clouds.7 mph83%30.01 "HgN/A
11:00 PM77 °FPassing clouds.9 mph83%30.01 "HgN/A
10:30 PM77 °FPassing clouds.9 mph83%30.01 "HgN/A
9:30 PM79 °FPassing clouds.12 mph79%29.98 "HgN/A
9:00 PM79 °FPassing clouds.13 mph79%29.98 "HgN/A
8:30 PM79 °FSunny.14 mph74%29.98 "Hg10 mi
8:00 PM81 °FSunny.15 mph74%29.98 "Hg10 mi
7:30 PM81 °FSunny.15 mph74%29.98 "Hg10 mi
7:00 PM81 °FPassing clouds.16 mph70%29.98 "HgN/A
6:30 PM82 °FPassing clouds.16 mph70%29.98 "HgN/A
6:00 PM82 °FPassing clouds.17 mph66%29.98 "HgN/A
5:30 PM82 °FPassing clouds.17 mph66%29.98 "HgN/A
5:00 PM82 °FPassing clouds.17 mph70%29.98 "HgN/A
4:30 PM82 °FPassing clouds.17 mph66%29.98 "HgN/A
4:00 PM82 °FPassing clouds.15 mph70%29.98 "HgN/A
3:30 PM82 °FPassing clouds.15 mph70%29.98 "HgN/A
3:00 PM82 °FPassing clouds.14 mph70%29.98 "HgN/A
2:30 PM82 °FPassing clouds.15 mph66%30.01 "HgN/A
2:00 PM82 °FPassing clouds.14 mph70%30.01 "HgN/A
1:30 PM82 °FPassing clouds.13 mph70%30.01 "HgN/A
1:00 PM82 °FPassing clouds.13 mph70%30.01 "HgN/A
12:30 PM81 °FPassing clouds.13 mph74%30.01 "HgN/A
12:00 PM81 °FPassing clouds.12 mph74%30.01 "HgN/A
11:30 AM81 °FScattered clouds.9 mph74%30.01 "HgN/A
11:00 AM81 °FScattered clouds.8 mph74%30.01 "HgN/A
10:30 AM81 °FScattered clouds.7 mph74%30.01 "HgN/A
10:00 AM81 °FScattered clouds.3 mph74%30.01 "HgN/A
9:30 AM77 °FPassing clouds.3 mph79%30.01 "HgN/A
9:00 AM75 °FPassing clouds.2 mph83%30.01 "HgN/A
8:30 AM75 °FPassing clouds.5 mph78%30.01 "HgN/A
8:00 AM73 °FPassing clouds.3 mph83%29.98 "HgN/A
Weather by CustomWeather, © 2015

See weather overviewHow to use our weather pages